CZ-6A DEB

Satellite information

Favourite Embed

Satellite Type and Status

DEBRISIN ORBIT

Key statistics

Satellite CZ-6A DEB at a glance.

Uptime

395

Days in orbit

Revolutions

≈ 14.7

Per day

Orbit

LEO

Low Earth Orbit

Inclination

89.0

Latest

Satellite identification and parameters

Extended collection of information and parameters for CZ-6A DEB.

Object identification

Identified? True

Debris? True

Object name: CZ-6A DEB

International designator: 2024-140RL

Object number (NORAD): 61166

Object ID (CCSDS): 61166

Country: PEOPLES REPUBLIC OF CHINA (PRC)

Current information (Y/N): Y

RCS size: SMALL

Orbital parameters

Period: 98.029 minutes

Inclination: 88.9741 deg

SMA: 7042.527 km

Apoapsis: 729.526 km

Periapsis: 599.259 km

RAAN: 302.6453 deg

Eccentricy: 0.00924856

Argument of periapsis: 149.2317 deg

Mean anomaly: 211.4369 deg

Mean motion: 14.68959918 rev/day

Mean motion (dot): 0.00022104 rev/day2

B* drag term: 0.0035259219 1/REarth

Two-line elements (TLE)

Creation date: Sept. 4, 2025, 10:13 a.m.

Reference frame: TEME

Reference center: EARTH

Epoch: Sept. 4, 2025, 3:12 a.m. UTC

TLE line 0: 0 CZ-6A DEB

TLE line 1: 1 61166U 24140RL 25247.13398013 .00022104 00000-0 35259-2 0 9994

TLE line 2: 2 61166 88.9741 302.6453 0092486 149.2317 211.4369 14.68959918 54597

Live tracking on map

Real-time ground track for satellite CZ-6A DEB.

In-orbit conjunctions

A list of the most updated potential collisions computed for object CZ-6A DEB.

Target Orbit TCA Probability of collision Miss distance Type
SL-14 R/B LEO 2025-04-23 18:53:52 0.0003625193 175.0 (m) ROCKET BODY
NOAA 16 DEB SSO 2025-01-23 11:20:33 0.0003986819 500.0 (m) DEBRIS
DMSP 5D-2 F11 DEB SSO 2025-01-13 05:52:08 0.0001675321 932.0 (m) DEBRIS
DELTA 1 DEB SSO 2024-11-28 19:42:45 0.0001775777 959.0 (m) DEBRIS
FENGYUN 1C DEB SSO 2024-11-27 13:56:04 0.000882323 530.0 (m) DEBRIS

Associated space launch

18 Low Earth Orbit communication satellites with Ku, Q and V band payloads for the G60 constellation operated by Shanghai Spacecom Satellite Technology (SSST) with funding backed by the Shanghai local government. Initial constellation will consist of 1296 satellites by 2027 with long term plans to expand it to 12000 satellites.

CZ-6A DEB was lifted into orbit during the mission ‘Long March 6A | G60 Polar Group 01’, on board a Long March 6A space rocket.

The launch took place on Aug. 6, 2024, 6:42 a.m. from Launch Complex 9A.

For more information about the launch, click the button.

Launch to space Long March 6A | G60 Polar Group 01
Long March 6A | G60 Polar Group 01

Agency: N/A

Status: Launch Successful

Launch date: Aug. 6, 2024, 6:42 a.m. UTC

Rocket: Long March 6A

Launch pad: Launch Complex 9A

Location: Taiyuan Satellite Launch Center, People's Republic of China

...

Latest news about this satellite

News about space launch
Brightness of first Chinese broadband constellation satellites alarms astronomers

The first satellites of a Chinese broadband constellation are significantly brighter than those of Western systems, posing a new challenge for astronomers.

News about space launch
Chinese rocket stage breaks up into cloud of more than 700 pieces of space debris

HELSINKI — A Chinese Long March 6A rocket’s upper stage has fragmented into a cloud of over 700 pieces of space debris, adding to concerns about long-term orbital safety. China […]

News about space launch
China's Thousand Sails Megaconstellation Kicks Off with Dangerous Debris Field

China's Thousand Sails Megaconstellation Kicks Off with Dangerous Debris Field


Newsletter sign-up

Weekly statistics, charts and insights to help you stay on top of the space industry.